QPF
0.08 0.04 0.00 0.00 0.00 0.00 0.00 0.00 0.00 0.00 0.00 0.00 0.00 0.00 0.00 0.00 0.00 0.00 0.00 0.00 0.00 0.00 0.00 0.00 0.00 0.00 0.00 0.00 0.00 0.00 0.00 0.00 0.00 0.00 0.00 0.00 0.00 0.00 0.00 0.00 0.00 0.00 0.00 0.00 0.00 0.00 0.00 0.00 0.00 0.01 0.01 0.00 0.02 0.01
0.04 0.03 0.01 0.00 0.00 0.00 0.00 0.00 0.00 0.00 0.00 0.00 0.00 0.00 0.00 0.00 0.00 0.00 0.00 0.00 0.00 0.00 0.00 0.00 0.00 0.00 0.00 0.00 0.00 0.00 0.00 0.00 0.00 0.00 0.00 0.00 0.00 0.00 0.00 0.00 0.00 0.00 0.00 0.00 0.01 0.00 0.00 0.00 0.00 0.00 0.00 0.01 0.01 0.00
0.00 0.02 0.01 0.00 0.00 0.00 0.00 0.00 0.00 0.00 0.00 0.00 0.00 0.00 0.00 0.00 0.00 0.00 0.00 0.00 0.00 0.00 0.00 0.00 0.00 0.00 0.00 0.00 0.00 0.00 0.00 0.00 0.00 0.00 0.00 0.00 0.00 0.00 0.00 0.00 0.00 0.00 0.00 0.00 0.00 0.00 0.00 0.00 0.00 0.00 0.00 0.00 0.00 0.00
0.00 0.00 0.01 0.01 0.00 0.00 0.00 0.00 0.00 0.00 0.00 0.00 0.00 0.00 0.00 0.00 0.00 0.00 0.00 0.00 0.00 0.00 0.00 0.00 0.00 0.00 0.00 0.00 0.00 0.00 0.00 0.00 0.00 0.00 0.00 0.00 0.00 0.00 0.00 0.00 0.00 0.00 0.00 0.00 0.00 0.00 0.00 0.00 0.00 0.00 0.00 0.00 0.00 0.00
0.00 0.00 0.00 0.00 0.00 0.00 0.00 0.00 0.00 0.00 0.00 0.00 0.00 0.00 0.00 0.00 0.00 0.00 0.00 0.00 0.00 0.00 0.00 0.00 0.00 0.00 0.00 0.00 0.00 0.00 0.00 0.00 0.00 0.00 0.00 0.00 0.00 0.00 0.00 0.00 0.00 0.00 0.00 0.01 0.01 0.00 0.00 0.00 0.01 0.01 0.00 0.00 0.00 0.00
0.00 0.00 0.00 0.00 0.00 0.00 0.00 0.00 0.00 0.00 0.00 0.00 0.00 0.00 0.00 0.00 0.00 0.00 0.00 0.00 0.00 0.00 0.00 0.00 0.00 0.00 0.00 0.00 0.00 0.00 0.00 0.00 0.00 0.00 0.00 0.00 0.00 0.00 0.01 0.01 0.00 0.00 0.00 0.00 0.01 0.00 0.00 0.01 0.01 0.00 0.00 0.00 0.00 0.00
0.00 0.00 0.00 0.00 0.01 0.02 0.01 0.01 0.00 0.00 0.00 0.00 0.00 0.00 0.00 0.00 0.00 0.00 0.00 0.00 0.00 0.00 0.01 0.00 0.00 0.00 0.00 0.00 0.00 0.00 0.00 0.00 0.00 0.00 0.00 0.00 0.00 0.00 0.01 0.01 0.00 0.00 0.00 0.00 0.00 0.00 0.00 0.00 0.00 0.00 0.00 0.00 0.00 0.00
0.00 0.00 0.00 0.00 0.00 0.02 0.04 0.02 0.01 0.01 0.01 0.00 0.00 0.00 0.00 0.00 0.00 0.00 0.00 0.00 0.00 0.00 0.00 0.00 0.00 0.00 0.00 0.00 0.00 0.00 0.00 0.00 0.00 0.00 0.00 0.00 0.00 0.00 0.00 0.00 0.00 0.00 0.00 0.00 0.00 0.00 0.00 0.00 0.00 0.00 0.00 0.00 0.00 0.00
0.00 0.00 0.00 0.00 0.00 0.01 0.04 0.08 0.07 0.05 0.05 0.06 0.03 0.03 0.04 0.02 0.01 0.01 0.00 0.00 0.00 0.00 0.00 0.00 0.00 0.00 0.00 0.00 0.00 0.00 0.00 0.00 0.00 0.00 0.00 0.00 0.00 0.00 0.00 0.00 0.00 0.00 0.00 0.00 0.00 0.00 0.00 0.00 0.00 0.00 0.00 0.00 0.00 0.00
0.00 0.00 0.00 0.00 0.00 0.01 0.01 0.07 0.11 0.15 0.19 0.32 0.22 0.13 0.07 0.03 0.04 0.02 0.03 0.04 0.06 0.04 0.04 0.02 0.00 0.00 0.00 0.00 0.00 0.00 0.01 0.00 0.00 0.00 0.00 0.00 0.00 0.00 0.00 0.00 0.00 0.00 0.00 0.00 0.00 0.00 0.00 0.00 0.00 0.00 0.00 0.00 0.00 0.00
0.00 0.00 0.00 0.00 0.00 0.00 0.00 0.04 0.16 0.28 0.48 0.46 0.41 0.27 0.10 0.09 0.04 0.07 0.10 0.10 0.11 0.06 0.03 0.03 0.03 0.02 0.01 0.01 0.02 0.06 0.05 0.02 0.02 0.00 0.00 0.00 0.00 0.00 0.00 0.00 0.00 0.00 0.00 0.00 0.00 0.00 0.00 0.00 0.00 0.00 0.00 0.00 0.00 0.00
0.00 0.00 0.00 0.00 0.00 0.00 0.00 0.04 0.16 0.38 0.54 0.49 0.30 0.17 0.16 0.14 0.15 0.21 0.19 0.13 0.06 0.04 0.02 0.00 0.01 0.03 0.06 0.06 0.05 0.10 0.08 0.06 0.03 0.00 0.00 0.00 0.00 0.00 0.00 0.00 0.00 0.00 0.00 0.00 0.00 0.00 0.00 0.00 0.00 0.00 0.00 0.00 0.00 0.00
0.01 0.00 0.00 0.00 0.00 0.00 0.00 0.02 0.08 0.16 0.24 0.31 0.31 0.33 0.28 0.28 0.18 0.12 0.07 0.05 0.02 0.00 0.00 0.00 0.01 0.03 0.02 0.02 0.07 0.05 0.01 0.01 0.00 0.00 0.00 0.00 0.00 0.00 0.00 0.00 0.00 0.00 0.00 0.00 0.00 0.00 0.00 0.00 0.00 0.00 0.00 0.00 0.00 0.00
0.02 0.00 0.00 0.00 0.00 0.01 0.03 0.03 0.08 0.21 0.19 0.22 0.18 0.19 0.10 0.10 0.06 0.01 0.00 0.00 0.00 0.00 0.00 0.00 0.00 0.00 0.00 0.01 0.03 0.01 0.01 0.00 0.00 0.00 0.00 0.00 0.00 0.00 0.00 0.00 0.00 0.00 0.00 0.00 0.00 0.00 0.00 0.00 0.00 0.00 0.00 0.00 0.00 0.00
0.05 0.01 0.00 0.00 0.00 0.00 0.05 0.08 0.04 0.04 0.03 0.03 0.03 0.06 0.04 0.03 0.02 0.00 0.00 0.00 0.00 0.00 0.00 0.00 0.00 0.00 0.01 0.02 0.02 0.01 0.00 0.00 0.00 0.00 0.00 0.00 0.00 0.00 0.00 0.00 0.00 0.00 0.00 0.00 0.00 0.00 0.00 0.00 0.00 0.00 0.00 0.00 0.00 0.00
0.11 0.04 0.01 0.00 0.00 0.01 0.02 0.04 0.02 0.03 0.02 0.00 0.00 0.01 0.02 0.01 0.01 0.01 0.01 0.00 0.00 0.00 0.00 0.00 0.00 0.00 0.00 0.00 0.00 0.00 0.00 0.00 0.00 0.00 0.00 0.00 0.00 0.00 0.00 0.00 0.00 0.00 0.00 0.00 0.00 0.00 0.00 0.00 0.00 0.00 0.00 0.00 0.00 0.00
0.19 0.06 0.01 0.00 0.00 0.01 0.04 0.02 0.01 0.01 0.03 0.00 0.00 0.00 0.00 0.00 0.00 0.00 0.00 0.00 0.00 0.00 0.00 0.00 0.00 0.00 0.00 0.00 0.00 0.00 0.00 0.00 0.00 0.00 0.00 0.00 0.00 0.00 0.00 0.00 0.00 0.00 0.00 0.00 0.00 0.00 0.00 0.00 0.00 0.00 0.00 0.00 0.00 0.00
0.20 0.06 0.00 0.00 0.00 0.01 0.04 0.01 0.01 0.00 0.00 0.00 0.00 0.00 0.00 0.00 0.00 0.00 0.00 0.00 0.00 0.00 0.00 0.00 0.00 0.00 0.00 0.00 0.00 0.00 0.00 0.00 0.00 0.00 0.00 0.00 0.00 0.00 0.00 0.00 0.00 0.00 0.00 0.00 0.00 0.00 0.00 0.00 0.00 0.00 0.00 0.00 0.00 0.00
0.06 0.07 0.01 0.00 0.00 0.00 0.01 0.01 0.00 0.00 0.00 0.00 0.00 0.00 0.00 0.00 0.00 0.00 0.00 0.00 0.00 0.00 0.00 0.00 0.00 0.00 0.00 0.00 0.00 0.00 0.00 0.00 0.00 0.00 0.00 0.00 0.00 0.00 0.00 0.00 0.00 0.00 0.00 0.00 0.00 0.00 0.00 0.00 0.00 0.00 0.00 0.00 0.00 0.00
0.20 0.19 0.07 0.02 0.00 0.00 0.00 0.00 0.00 0.00 0.00 0.00 0.00 0.00 0.00 0.00 0.00 0.00 0.00 0.00 0.00 0.00 0.00 0.00 0.00 0.00 0.00 0.00 0.00 0.00 0.00 0.00 0.00 0.00 0.00 0.00 0.00 0.00 0.00 0.00 0.00 0.00 0.00 0.00 0.00 0.00 0.00 0.00 0.00 0.00 0.00 0.00 0.00 0.00
0.33 0.30 0.16 0.07 0.02 0.00 0.00 0.00 0.00 0.00 0.00 0.00 0.00 0.00 0.00 0.00 0.00 0.00 0.00 0.00 0.00 0.01 0.00 0.00 0.00 0.00 0.00 0.00 0.00 0.00 0.00 0.00 0.00 0.00 0.00 0.00 0.00 0.00 0.00 0.00 0.00 0.00 0.00 0.00 0.00 0.00 0.00 0.00 0.00 0.00 0.00 0.00 0.00 0.00
0.27 0.19 0.10 0.06 0.01 0.00 0.00 0.00 0.00 0.00 0.00 0.00 0.00 0.00 0.00 0.00 0.00 0.00 0.00 0.00 0.00 0.00 0.00 0.00 0.00 0.00 0.00 0.00 0.00 0.00 0.00 0.00 0.00 0.00 0.00 0.00 0.00 0.00 0.00 0.00 0.00 0.00 0.00 0.00 0.00 0.00 0.00 0.00 0.00 0.00 0.00 0.00 0.00 0.01
0.09 0.05 0.01 0.00 0.00 0.00 0.00 0.00 0.00 0.00 0.00 0.00 0.00 0.00 0.00 0.00 0.00 0.00 0.00 0.00 0.00 0.00 0.00 0.00 0.00 0.00 0.00 0.00 0.00 0.00 0.00 0.00 0.00 0.00 0.00 0.00 0.00 0.00 0.00 0.00 0.00 0.00 0.00 0.00 0.00 0.00 0.00 0.00 0.00 0.00 0.00 0.00 0.00 0.00
0.00 0.00 0.00 0.00 0.00 0.00 0.00 0.00 0.00 0.00 0.00 0.00 0.00 0.00 0.00 0.00 0.00 0.00 0.00 0.00 0.00 0.00 0.00 0.00 0.00 0.00 0.00 0.00 0.00 0.00 0.00 0.00 0.00 0.00 0.00 0.00 0.00 0.00 0.00 0.00 0.00 0.00 0.00 0.00 0.00 0.00 0.00 0.00 0.00 0.00 0.00 0.00 0.00 0.00
0.00 0.00 0.00 0.00 0.00 0.00 0.00 0.00 0.00 0.00 0.00 0.00 0.00 0.00 0.00 0.00 0.00 0.00 0.00 0.00 0.00 0.00 0.00 0.00 0.00 0.00 0.00 0.00 0.00 0.00 0.00 0.00 0.00 0.00 0.00 0.00 0.00 0.00 0.00 0.00 0.00 0.00 0.00 0.00 0.00 0.01 0.01 0.00 0.01 0.01 0.00 0.00 0.00 0.00
0.00 0.00 0.00 0.00 0.00 0.00 0.00 0.00 0.00 0.00 0.00 0.00 0.00 0.00 0.00 0.00 0.00 0.00 0.00 0.00 0.00 0.00 0.00 0.00 0.00 0.00 0.00 0.00 0.00 0.00 0.00 0.00 0.00 0.00 0.00 0.00 0.00 0.00 0.00 0.00 0.00 0.00 0.00 0.01 0.01 0.01 0.00 0.00 0.00 0.00 0.00 0.00 0.00 0.00
0.00 0.00 0.00 0.00 0.00 0.00 0.00 0.00 0.00 0.00 0.00 0.00 0.00 0.00 0.00 0.00 0.00 0.00 0.00 0.00 0.00 0.00 0.00 0.00 0.00 0.00 0.00 0.00 0.00 0.00 0.00 0.00 0.00 0.00 0.00 0.00 0.00 0.00 0.01 0.01 0.01 0.01 0.01 0.01 0.01 0.01 0.01 0.00 0.00 0.01 0.01 0.00 0.00 0.00
0.00 0.00 0.00 0.00 0.00 0.00 0.00 0.00 0.00 0.00 0.00 0.00 0.00 0.00 0.00 0.00 0.00 0.00 0.00 0.00 0.00 0.00 0.00 0.00 0.00 0.00 0.00 0.00 0.00 0.00 0.00 0.00 0.00 0.00 0.00 0.00 0.01 0.02 0.02 0.02 0.02 0.02 0.02 0.02 0.01 0.01 0.01 0.02 0.01 0.01 0.01 0.01 0.00 0.00
0.00 0.00 0.00 0.00 0.00 0.00 0.00 0.00 0.00 0.00 0.00 0.00 0.00 0.00 0.00 0.00 0.00 0.00 0.00 0.00 0.00 0.00 0.00 0.00 0.00 0.00 0.00 0.00 0.00 0.00 0.00 0.00 0.00 0.01 0.00 0.01 0.03 0.03 0.02 0.02 0.02 0.01 0.01 0.01 0.01 0.02 0.03 0.02 0.01 0.01 0.01 0.01 0.01 0.00
0.00 0.00 0.00 0.00 0.00 0.00 0.00 0.00 0.00 0.00 0.00 0.00 0.00 0.00 0.00 0.00 0.00 0.00 0.00 0.00 0.00 0.00 0.00 0.00 0.00 0.00 0.00 0.00 0.00 0.01 0.01 0.01 0.02 0.02 0.02 0.03 0.03 0.02 0.02 0.01 0.01 0.01 0.01 0.01 0.01 0.00 0.00 0.00 0.00 0.00 0.00 0.00 0.00 0.00
0.00 0.00 0.00 0.00 0.00 0.00 0.00 0.00 0.00 0.00 0.00 0.00 0.00 0.00 0.00 0.00 0.01 0.00 0.00 0.00 0.00 0.00 0.00 0.00 0.00 0.00 0.01 0.01 0.01 0.01 0.02 0.02 0.02 0.03 0.03 0.03 0.02 0.02 0.02 0.01 0.01 0.00 0.00 0.00 0.00 0.00 0.00 0.00 0.00 0.00 0.00 0.00 0.00 0.00
0.00 0.00 0.00 0.00 0.00 0.00 0.00 0.00 0.00 0.00 0.00 0.00 0.00 0.00 0.00 0.00 0.00 0.01 0.00 0.00 0.00 0.00 0.00 0.00 0.01 0.01 0.02 0.02 0.02 0.02 0.02 0.02 0.01 0.02 0.02 0.02 0.02 0.02 0.02 0.01 0.01 0.00 0.00 0.00 0.00 0.00 0.00 0.00 0.00 0.00 0.00 0.00 0.00 0.00
0.00 0.00 0.00 0.00 0.00 0.00 0.00 0.00 0.00 0.00 0.00 0.00 0.00 0.00 0.00 0.00 0.00 0.01 0.00 0.00 0.00 0.00 0.00 0.01 0.01 0.01 0.02 0.01 0.01 0.01 0.01 0.01 0.01 0.01 0.01 0.02 0.02 0.02 0.02 0.01 0.01 0.00 0.00 0.00 0.00 0.00 0.00 0.00 0.00 0.00 0.00 0.00 0.00 0.00
MSLP
1014.41 1014.49 1014.69 1015.08 1015.47 1015.83 1016.17 1016.50 1016.80 1016.99 1017.10 1017.24 1017.47 1017.45 1017.21 1017.07 1016.88 1016.27 1017.03 1017.15 1016.69 1017.29 1018.01 1018.02 1017.90 1017.79 1018.08 1017.94 1018.53 1020.28 1021.05 1021.81 1022.41 1023.20 1024.11 1024.43 1024.54 1023.84 1023.64 1023.06 1022.97 1023.23 1023.74 1023.89 1023.84 1022.83 1021.37 1020.82 1020.79 1021.48 1021.26 1021.92 1022.67 1022.86
1014.43 1014.53 1014.95 1015.18 1015.44 1015.74 1016.00 1016.38 1016.74 1016.94 1017.06 1017.18 1017.40 1017.55 1017.44 1017.24 1017.07 1016.70 1016.67 1017.28 1017.25 1017.03 1018.45 1018.73 1018.51 1018.35 1018.06 1017.69 1018.28 1019.73 1019.94 1020.42 1021.20 1022.42 1024.00 1024.77 1024.71 1024.43 1023.69 1022.96 1022.54 1022.13 1022.05 1022.20 1022.32 1020.70 1019.87 1020.13 1020.86 1021.31 1021.97 1022.42 1022.55 1022.86
1014.89 1014.97 1015.03 1015.07 1015.32 1015.62 1015.84 1016.19 1016.59 1016.84 1017.01 1017.16 1017.34 1017.55 1017.63 1017.46 1017.24 1016.95 1016.91 1017.35 1017.25 1017.92 1018.95 1018.80 1018.76 1018.79 1018.52 1018.32 1018.34 1018.78 1020.27 1020.45 1021.19 1022.00 1023.28 1024.35 1024.29 1023.85 1023.64 1022.71 1021.84 1021.28 1021.53 1021.67 1021.55 1020.33 1019.94 1020.37 1020.58 1021.57 1022.20 1022.72 1023.00 1023.10
1015.39 1015.30 1015.13 1015.15 1015.30 1015.50 1015.74 1016.07 1016.40 1016.71 1017.04 1017.24 1017.40 1017.60 1017.68 1017.59 1017.52 1017.25 1017.21 1017.67 1017.58 1018.32 1018.98 1019.15 1019.34 1019.08 1019.04 1018.79 1018.60 1018.68 1019.32 1020.78 1021.58 1022.29 1023.40 1023.82 1023.73 1023.01 1022.93 1021.82 1021.37 1020.79 1020.82 1020.80 1020.57 1020.38 1020.37 1020.57 1021.52 1022.20 1022.75 1022.95 1023.01 1022.82
1015.67 1015.50 1015.51 1015.51 1015.38 1015.40 1015.61 1015.95 1016.21 1016.53 1016.93 1017.33 1017.50 1017.65 1017.81 1017.79 1017.69 1017.50 1017.46 1017.80 1017.69 1017.84 1018.56 1019.25 1019.55 1019.74 1019.43 1019.11 1018.98 1019.12 1019.54 1020.35 1021.55 1022.80 1023.36 1023.23 1022.94 1022.92 1022.83 1022.65 1021.11 1020.39 1019.93 1020.49 1020.37 1020.77 1021.10 1021.55 1022.20 1022.57 1022.83 1022.84 1022.73 1022.85
1015.92 1015.76 1015.78 1015.83 1015.64 1015.40 1015.42 1015.70 1016.01 1016.41 1016.75 1017.22 1017.51 1017.67 1017.80 1017.82 1017.78 1017.55 1017.80 1018.00 1017.96 1017.73 1018.46 1019.61 1020.07 1019.92 1019.81 1019.54 1019.65 1019.75 1020.09 1020.69 1021.27 1021.88 1022.50 1022.31 1021.72 1022.06 1022.40 1021.86 1020.70 1020.05 1019.90 1020.02 1020.61 1021.13 1021.52 1021.99 1022.40 1022.58 1022.74 1022.96 1023.01 1022.90
1015.97 1016.02 1016.10 1016.04 1016.02 1015.50 1015.41 1015.46 1015.71 1016.12 1016.49 1016.97 1017.38 1017.62 1017.86 1017.96 1017.75 1018.15 1018.38 1018.50 1018.33 1017.96 1018.78 1020.07 1020.22 1020.59 1020.72 1020.50 1020.85 1020.80 1021.07 1021.05 1021.55 1021.89 1022.11 1022.03 1021.83 1022.13 1021.68 1021.07 1020.34 1020.42 1020.48 1020.82 1021.21 1021.61 1022.06 1022.17 1022.34 1022.90 1022.97 1022.82 1022.69 1022.58
1016.27 1016.46 1016.42 1016.37 1016.18 1015.85 1015.48 1015.36 1015.47 1015.81 1016.19 1016.70 1017.20 1017.56 1018.02 1018.22 1018.56 1018.72 1018.55 1018.64 1018.48 1018.74 1019.58 1020.45 1020.90 1021.28 1021.01 1021.08 1021.59 1022.08 1021.78 1021.76 1021.80 1021.83 1022.29 1022.15 1022.05 1021.92 1021.26 1020.34 1020.70 1021.07 1021.57 1021.59 1021.76 1021.91 1021.97 1022.61 1022.76 1022.75 1022.71 1022.67 1022.64 1022.34
1016.55 1016.64 1016.62 1016.31 1016.17 1015.90 1015.54 1015.38 1015.32 1015.55 1015.95 1016.50 1017.10 1017.67 1018.22 1018.42 1018.65 1018.76 1019.01 1018.82 1018.87 1019.35 1019.90 1020.66 1020.89 1021.19 1021.17 1021.71 1022.18 1022.47 1022.25 1022.35 1022.50 1022.37 1022.52 1022.52 1021.98 1021.42 1020.78 1020.75 1020.99 1021.30 1021.55 1022.07 1022.21 1022.28 1022.46 1022.63 1022.72 1022.83 1022.82 1022.70 1022.64 1022.45
1016.74 1016.65 1016.58 1016.48 1016.13 1016.02 1015.65 1015.21 1015.23 1015.31 1015.73 1016.31 1017.01 1017.65 1018.42 1018.49 1018.55 1018.75 1019.26 1019.30 1019.40 1019.93 1020.42 1020.55 1020.73 1021.09 1021.03 1021.94 1022.36 1022.79 1022.82 1022.61 1022.62 1022.92 1022.76 1022.31 1021.41 1021.19 1021.15 1021.12 1021.22 1021.42 1021.80 1022.13 1022.38 1022.66 1022.74 1022.86 1022.96 1023.05 1023.05 1023.01 1022.91 1022.78
1016.79 1016.88 1016.99 1016.58 1016.29 1015.90 1015.74 1015.18 1015.11 1015.42 1015.93 1016.15 1016.83 1017.93 1018.80 1018.71 1018.60 1019.11 1019.46 1019.83 1020.26 1020.60 1020.66 1020.88 1021.18 1021.28 1021.79 1021.95 1022.31 1022.88 1022.81 1022.82 1022.64 1022.70 1022.58 1021.66 1020.63 1020.49 1020.97 1021.27 1021.63 1021.91 1022.16 1022.45 1022.59 1022.87 1023.10 1023.16 1023.16 1023.14 1023.24 1023.29 1023.35 1023.29
1016.86 1016.86 1016.65 1016.22 1016.29 1016.07 1015.95 1015.57 1015.76 1015.74 1016.03 1016.40 1017.01 1017.82 1018.77 1018.83 1019.08 1019.34 1019.54 1020.20 1020.19 1020.34 1020.86 1021.04 1021.46 1021.40 1022.08 1021.96 1022.35 1023.39 1023.10 1023.04 1022.59 1022.81 1022.42 1020.81 1019.94 1020.47 1020.99 1021.45 1021.90 1022.29 1022.54 1022.75 1023.03 1023.07 1023.26 1023.37 1023.38 1023.50 1023.50 1023.43 1023.39 1023.28
1016.80 1016.84 1016.73 1016.79 1016.70 1016.30 1016.14 1016.19 1016.34 1016.77 1016.58 1016.80 1017.39 1018.40 1018.83 1019.39 1019.24 1019.09 1019.28 1019.64 1019.95 1020.20 1020.82 1021.06 1021.58 1021.89 1022.45 1022.47 1022.82 1023.15 1023.12 1023.05 1023.13 1022.60 1021.19 1019.93 1020.09 1020.56 1021.06 1021.62 1022.14 1022.59 1023.07 1023.44 1023.27 1023.33 1023.40 1023.37 1023.42 1023.67 1023.67 1023.55 1023.43 1023.00
1016.81 1016.89 1016.84 1016.85 1016.65 1016.31 1016.36 1016.68 1016.98 1017.24 1017.45 1017.88 1018.17 1018.70 1018.91 1019.27 1019.47 1019.29 1019.47 1019.55 1020.09 1020.18 1020.68 1021.22 1021.96 1022.45 1022.99 1022.85 1023.12 1023.15 1023.72 1023.35 1022.62 1021.71 1020.24 1019.89 1020.19 1020.64 1021.44 1022.07 1022.43 1022.81 1023.24 1023.50 1023.47 1023.43 1023.43 1023.41 1023.38 1023.49 1023.42 1023.23 1023.08 1022.58
1016.60 1016.81 1016.89 1016.99 1017.01 1016.81 1017.00 1017.32 1017.49 1017.59 1018.15 1018.66 1018.63 1019.14 1019.53 1019.89 1020.06 1020.26 1020.30 1020.30 1020.62 1020.86 1021.19 1021.80 1022.44 1022.53 1022.92 1023.01 1023.19 1023.49 1023.54 1022.65 1021.72 1020.53 1020.14 1020.13 1020.75 1021.35 1021.90 1022.33 1022.65 1022.98 1023.22 1023.33 1023.17 1023.09 1023.10 1023.14 1023.10 1022.84 1022.60 1022.55 1022.42 1022.20
1016.60 1016.99 1016.89 1016.98 1017.22 1017.05 1017.16 1017.40 1017.47 1017.98 1018.94 1019.40 1019.73 1020.21 1020.51 1020.49 1020.60 1020.52 1020.70 1020.90 1021.07 1021.50 1021.81 1021.96 1022.34 1022.46 1022.63 1022.58 1022.89 1022.56 1022.38 1021.33 1020.75 1020.76 1020.81 1021.02 1021.45 1021.84 1022.14 1022.41 1022.61 1022.71 1022.80 1022.81 1022.74 1022.76 1022.75 1022.67 1022.57 1022.19 1021.96 1021.79 1021.51 1021.40
1016.77 1016.75 1016.57 1016.95 1017.36 1017.36 1017.32 1017.53 1017.70 1018.75 1019.80 1019.99 1020.51 1020.63 1020.88 1020.63 1020.76 1020.98 1020.96 1021.22 1021.46 1021.67 1021.87 1021.98 1022.03 1022.05 1022.80 1022.51 1022.27 1022.18 1021.49 1020.94 1020.93 1021.07 1021.34 1021.62 1021.78 1021.93 1022.12 1022.21 1022.35 1022.34 1022.33 1022.27 1022.16 1022.16 1022.07 1022.10 1022.11 1021.94 1021.41 1020.65 1020.83 1020.74
1016.59 1016.67 1016.78 1016.93 1017.11 1017.42 1018.47 1018.65 1018.94 1019.37 1020.11 1020.81 1020.82 1021.23 1021.38 1021.49 1021.62 1021.71 1021.59 1021.55 1021.64 1021.59 1021.68 1021.59 1021.79 1021.92 1021.83 1021.61 1021.15 1021.08 1021.26 1021.37 1021.44 1021.44 1021.51 1021.62 1021.78 1021.88 1021.93 1021.85 1021.86 1021.88 1021.76 1021.61 1021.51 1021.44 1021.29 1021.34 1021.29 1020.82 1020.67 1020.35 1020.30 1020.02
1016.10 1016.56 1016.86 1017.03 1017.05 1018.00 1018.97 1019.73 1020.01 1020.21 1021.05 1021.27 1021.62 1021.73 1021.84 1022.14 1022.52 1022.54 1022.26 1022.14 1021.88 1021.75 1021.69 1021.59 1021.45 1021.30 1021.14 1021.13 1020.94 1021.07 1021.29 1021.42 1021.30 1021.35 1021.44 1021.57 1021.57 1021.61 1021.68 1021.60 1021.51 1021.38 1021.11 1020.91 1020.83 1020.62 1020.34 1020.39 1020.44 1020.20 1020.11 1019.95 1019.82 1019.50
1016.19 1016.64 1017.02 1017.27 1017.43 1018.24 1019.51 1020.33 1020.39 1020.37 1021.09 1021.53 1021.83 1022.03 1022.39 1022.67 1022.90 1022.89 1022.63 1022.28 1021.96 1021.78 1021.55 1021.23 1020.92 1020.83 1020.73 1020.72 1020.89 1020.93 1021.01 1021.24 1021.46 1021.38 1021.18 1021.19 1021.47 1021.43 1021.29 1021.01 1020.69 1020.42 1020.37 1020.26 1020.11 1020.19 1019.98 1019.76 1019.55 1019.53 1019.53 1019.44 1019.39 1018.91
1016.97 1017.43 1017.53 1017.68 1018.72 1019.21 1020.07 1020.68 1020.82 1021.11 1021.32 1021.48 1022.12 1022.03 1022.74 1022.91 1022.94 1022.90 1022.67 1022.40 1022.05 1021.58 1021.05 1020.68 1020.51 1020.44 1020.73 1020.93 1021.06 1021.11 1021.16 1021.18 1021.04 1021.14 1021.06 1020.92 1020.92 1020.91 1020.69 1020.47 1020.22 1020.09 1020.02 1019.76 1019.61 1019.37 1019.40 1019.17 1019.08 1019.18 1019.26 1019.19 1018.94 1018.54
1017.37 1017.37 1018.14 1018.92 1019.79 1020.39 1020.99 1021.55 1021.17 1021.57 1021.42 1021.97 1022.21 1022.39 1022.73 1023.10 1023.29 1023.27 1023.03 1022.59 1021.95 1021.20 1020.51 1020.12 1020.03 1020.23 1020.49 1020.66 1020.58 1020.73 1020.68 1020.75 1020.88 1020.90 1021.02 1020.82 1020.48 1020.25 1020.00 1019.86 1019.80 1019.57 1019.37 1019.04 1018.83 1018.73 1018.69 1018.66 1018.76 1018.86 1018.81 1018.59 1018.30 1017.92
1017.26 1017.62 1018.68 1019.39 1020.32 1020.99 1022.15 1022.10 1021.57 1021.70 1021.71 1022.27 1022.59 1022.67 1023.07 1023.41 1023.70 1023.81 1023.10 1022.40 1021.51 1020.47 1020.19 1020.09 1020.05 1020.20 1020.15 1020.10 1020.20 1020.21 1020.37 1020.46 1020.26 1020.16 1020.24 1020.23 1020.04 1019.80 1019.65 1019.34 1019.30 1019.14 1018.77 1018.32 1018.36 1018.37 1018.34 1018.43 1018.46 1018.41 1018.24 1018.03 1017.74 1017.41
1016.90 1018.22 1019.30 1020.14 1020.72 1021.70 1021.92 1022.03 1022.07 1022.11 1022.34 1022.55 1022.62 1022.89 1023.30 1023.62 1023.93 1023.55 1022.82 1022.05 1020.68 1020.41 1020.29 1020.12 1020.08 1019.88 1019.92 1020.15 1020.00 1019.81 1019.75 1019.88 1019.84 1019.82 1019.86 1019.81 1019.46 1018.99 1018.77 1018.57 1018.49 1018.46 1018.34 1018.10 1018.05 1017.98 1018.04 1018.09 1018.10 1017.98 1017.77 1017.51 1017.25 1016.83
1017.72 1020.20 1020.39 1021.11 1021.52 1021.85 1022.15 1022.21 1022.29 1022.26 1022.39 1022.79 1023.15 1023.29 1023.65 1024.18 1023.66 1023.13 1022.31 1020.99 1020.49 1020.32 1020.18 1020.23 1020.35 1020.25 1020.08 1019.85 1019.61 1019.38 1019.53 1019.59 1019.42 1019.23 1019.12 1019.24 1019.10 1018.73 1018.42 1018.12 1017.90 1017.93 1017.93 1017.98 1017.82 1017.75 1017.72 1017.78 1017.72 1017.53 1017.33 1017.08 1016.73 1016.42
1019.10 1020.41 1020.71 1021.10 1021.73 1021.87 1022.25 1022.40 1022.51 1022.51 1022.61 1022.85 1023.28 1023.71 1023.80 1023.51 1023.03 1021.89 1021.24 1020.78 1020.74 1020.72 1020.70 1020.67 1020.49 1020.31 1020.14 1020.01 1019.69 1019.44 1019.36 1019.68 1019.58 1019.23 1018.74 1018.80 1018.90 1018.93 1018.60 1018.28 1017.92 1017.63 1017.79 1017.81 1017.78 1017.69 1017.58 1017.54 1017.42 1017.17 1016.90 1016.69 1016.52 1016.27
1019.82 1020.48 1020.88 1021.45 1021.51 1021.97 1022.44 1022.81 1022.83 1022.74 1022.63 1022.58 1022.70 1023.36 1023.37 1023.09 1022.27 1021.50 1021.40 1021.78 1021.76 1022.09 1021.98 1021.75 1021.54 1021.23 1020.90 1020.57 1020.33 1020.23 1020.13 1019.98 1019.80 1019.40 1019.07 1019.12 1019.05 1018.93 1018.88 1018.64 1018.30 1018.11 1018.10 1017.95 1017.79 1017.65 1017.54 1017.36 1017.12 1016.88 1016.62 1016.48 1016.29 1016.13
1020.07 1020.50 1020.83 1021.52 1021.64 1021.98 1022.14 1022.22 1022.02 1021.85 1021.67 1021.93 1022.27 1022.38 1022.31 1022.20 1022.19 1022.55 1023.10 1023.56 1023.68 1023.27 1022.81 1022.55 1022.37 1022.39 1022.05 1021.68 1021.36 1020.93 1020.56 1020.25 1019.70 1019.25 1018.95 1018.77 1018.79 1018.99 1019.18 1019.06 1018.98 1018.85 1018.44 1018.11 1017.88 1017.67 1017.43 1017.17 1016.97 1016.87 1016.65 1016.38 1016.19 1016.11
1020.38 1020.88 1021.15 1021.68 1021.96 1022.01 1021.64 1021.27 1021.02 1020.89 1020.82 1021.22 1021.29 1021.25 1021.73 1022.66 1024.27 1024.61 1024.72 1024.86 1024.51 1024.06 1023.67 1023.49 1023.25 1023.28 1022.71 1022.50 1022.04 1021.80 1021.72 1021.29 1020.67 1019.88 1019.41 1019.01 1018.70 1019.74 1020.03 1019.83 1019.53 1019.22 1018.92 1018.51 1018.13 1017.88 1017.60 1017.27 1017.15 1017.03 1016.79 1016.62 1016.62 1016.56
1020.89 1021.11 1021.05 1021.44 1021.63 1021.27 1020.82 1020.83 1020.87 1020.96 1020.91 1020.94 1021.03 1021.33 1022.25 1024.27 1025.77 1026.17 1025.99 1025.82 1025.57 1025.45 1025.41 1025.13 1024.78 1024.28 1023.82 1023.41 1022.97 1022.62 1022.79 1022.74 1022.50 1022.19 1021.51 1021.18 1021.29 1021.29 1020.95 1020.62 1020.29 1019.95 1019.57 1019.05 1018.48 1017.89 1017.55 1017.47 1017.35 1017.20 1017.18 1017.20 1017.35 1017.40
1021.12 1021.22 1021.31 1021.40 1021.26 1021.03 1021.26 1021.62 1021.48 1021.47 1021.28 1021.08 1021.20 1021.53 1022.13 1024.70 1026.28 1027.17 1027.28 1027.11 1026.87 1026.61 1026.28 1025.93 1025.51 1025.11 1024.64 1024.34 1024.22 1023.87 1023.69 1023.93 1023.99 1023.73 1023.41 1022.84 1022.48 1022.16 1021.87 1021.56 1021.16 1020.70 1020.12 1019.54 1018.98 1018.46 1018.26 1018.04 1018.04 1018.05 1018.19 1018.36 1018.57 1018.60
1021.48 1021.43 1021.56 1021.51 1021.27 1021.61 1021.79 1021.73 1021.48 1021.30 1021.07 1021.24 1021.32 1022.51 1023.58 1024.44 1026.11 1027.58 1028.52 1028.05 1027.64 1027.45 1027.45 1027.14 1026.62 1026.07 1025.95 1025.72 1025.56 1025.43 1025.48 1025.16 1024.85 1024.63 1024.32 1023.85 1023.45 1023.13 1022.67 1022.19 1021.78 1021.24 1020.64 1020.11 1019.73 1019.38 1019.16 1019.01 1019.04 1019.09 1019.23 1019.47 1019.70 1019.86
1022.31 1022.42 1022.44 1022.33 1022.05 1021.84 1022.23 1022.10 1021.70 1021.46 1021.55 1021.73 1022.52 1023.36 1024.51 1025.55 1027.18 1028.50 1028.98 1028.94 1028.67 1028.50 1028.24 1027.85 1027.38 1026.88 1026.32 1026.34 1026.31 1026.02 1025.78 1025.58 1025.54 1025.39 1025.21 1024.76 1024.40 1024.01 1023.42 1022.81 1022.34 1021.90 1021.39 1020.92 1020.59 1020.32 1020.20 1020.20 1020.26 1020.36 1020.54 1020.71 1020.91 1021.10
Thickness
5489 5496 5502 5505 5510 5514 5518 5523 5527 5531 5536 5541 5545 5551 5559 5566 5572 5580 5580 5582 5592 5586 5585 5588 5591 5590 5589 5595 5586 5576 5574 5568 5558 5554 5543 5549 5543 5556 5552 5557 5549 5545 5529 5515 5506 5504 5510 5530 5528 5511 5520 5508 5492 5487
5482 5490 5494 5499 5503 5509 5514 5518 5522 5526 5531 5537 5540 5544 5551 5558 5564 5572 5577 5575 5579 5586 5580 5576 5581 5585 5589 5594 5587 5572 5578 5574 5571 5555 5534 5527 5526 5513 5538 5541 5547 5541 5540 5534 5519 5536 5540 5533 5518 5513 5500 5491 5488 5476
5472 5480 5488 5494 5499 5504 5510 5513 5516 5521 5526 5530 5535 5538 5542 5549 5555 5562 5567 5567 5572 5567 5566 5572 5574 5574 5578 5581 5582 5574 5562 5567 5561 5556 5545 5528 5527 5534 5520 5528 5530 5542 5535 5523 5517 5532 5531 5523 5517 5504 5492 5478 5467 5459
5462 5471 5481 5488 5493 5499 5504 5507 5512 5515 5519 5523 5527 5531 5536 5541 5546 5552 5556 5556 5562 5554 5542 5561 5558 5564 5565 5568 5570 5571 5565 5553 5548 5544 5519 5516 5526 5536 5517 5535 5534 5536 5528 5520 5519 5523 5520 5514 5499 5484 5473 5462 5455 5451
5451 5462 5471 5478 5486 5493 5498 5502 5507 5510 5513 5517 5520 5524 5528 5532 5538 5542 5546 5546 5551 5557 5548 5550 5547 5548 5552 5556 5558 5558 5556 5549 5538 5524 5508 5520 5523 5520 5509 5504 5523 5528 5524 5509 5505 5507 5501 5490 5475 5467 5456 5450 5446 5434
5441 5451 5460 5468 5477 5486 5493 5498 5502 5504 5507 5510 5513 5517 5521 5524 5529 5534 5539 5537 5540 5546 5541 5538 5536 5537 5539 5544 5544 5544 5543 5537 5534 5526 5517 5521 5529 5521 5496 5501 5520 5522 5520 5512 5502 5489 5482 5470 5459 5453 5446 5437 5428 5418
5432 5441 5449 5458 5465 5477 5485 5493 5497 5500 5502 5504 5506 5509 5511 5514 5519 5525 5530 5529 5529 5533 5527 5527 5527 5523 5522 5527 5522 5525 5523 5526 5520 5517 5512 5517 5517 5506 5489 5500 5513 5506 5499 5492 5481 5470 5461 5456 5449 5437 5429 5423 5415 5408
5420 5427 5437 5447 5456 5467 5477 5485 5491 5494 5497 5498 5499 5501 5501 5504 5505 5510 5512 5514 5517 5517 5512 5506 5509 5513 5514 5510 5503 5497 5500 5506 5509 5510 5494 5502 5496 5493 5493 5511 5497 5485 5473 5468 5462 5458 5453 5439 5431 5424 5418 5411 5402 5395
5410 5417 5426 5438 5448 5458 5469 5478 5485 5490 5492 5491 5490 5490 5490 5493 5496 5500 5498 5502 5503 5506 5503 5497 5505 5507 5502 5493 5488 5488 5491 5495 5487 5486 5484 5483 5480 5486 5495 5489 5474 5465 5461 5449 5446 5441 5433 5425 5418 5410 5402 5394 5386 5379
5402 5410 5418 5427 5438 5448 5459 5471 5478 5484 5486 5485 5483 5482 5476 5485 5488 5488 5484 5485 5483 5482 5483 5494 5500 5503 5501 5482 5480 5482 5475 5479 5482 5472 5466 5463 5473 5474 5469 5465 5460 5453 5447 5440 5430 5421 5416 5408 5402 5393 5384 5375 5367 5359
5393 5399 5405 5418 5428 5440 5450 5463 5471 5475 5475 5476 5472 5467 5468 5474 5478 5471 5467 5470 5466 5471 5472 5471 5473 5480 5472 5482 5476 5457 5458 5456 5473 5469 5464 5470 5481 5473 5458 5452 5444 5438 5432 5423 5417 5407 5398 5391 5383 5376 5367 5358 5346 5336
5383 5390 5401 5414 5421 5430 5439 5450 5454 5460 5464 5467 5467 5464 5459 5463 5458 5464 5459 5450 5459 5471 5457 5463 5460 5463 5453 5459 5458 5440 5450 5440 5457 5442 5439 5460 5473 5453 5444 5435 5427 5420 5412 5404 5395 5389 5382 5373 5365 5356 5348 5340 5332 5322
5377 5382 5389 5398 5407 5418 5427 5434 5440 5445 5451 5453 5451 5442 5446 5440 5455 5461 5466 5460 5459 5455 5451 5452 5451 5447 5439 5440 5433 5437 5439 5440 5423 5422 5445 5461 5448 5438 5430 5420 5409 5400 5390 5379 5380 5374 5366 5359 5347 5334 5327 5320 5313 5311
5372 5376 5380 5385 5397 5409 5416 5420 5423 5428 5430 5429 5432 5442 5444 5443 5442 5444 5449 5451 5439 5442 5441 5437 5430 5434 5419 5423 5421 5429 5407 5411 5418 5422 5438 5439 5431 5422 5410 5398 5391 5384 5369 5364 5361 5356 5346 5337 5332 5322 5313 5307 5302 5299
5365 5370 5373 5377 5382 5393 5400 5404 5408 5411 5410 5413 5424 5429 5425 5413 5416 5416 5418 5424 5421 5422 5423 5419 5413 5421 5409 5406 5405 5397 5394 5407 5417 5428 5424 5420 5408 5398 5388 5379 5374 5363 5354 5349 5349 5342 5331 5324 5320 5318 5311 5303 5295 5289
5356 5359 5365 5369 5373 5380 5388 5389 5397 5396 5391 5398 5396 5399 5394 5403 5402 5405 5406 5406 5403 5399 5398 5404 5401 5404 5399 5400 5394 5400 5401 5410 5411 5401 5397 5393 5384 5377 5370 5363 5358 5353 5345 5341 5337 5330 5323 5315 5310 5311 5305 5295 5290 5282
5344 5353 5359 5361 5364 5369 5375 5378 5384 5378 5372 5382 5382 5378 5381 5390 5397 5394 5395 5391 5386 5389 5393 5390 5395 5395 5372 5381 5382 5379 5386 5392 5387 5383 5377 5370 5367 5361 5356 5351 5341 5336 5333 5329 5326 5320 5315 5307 5301 5294 5294 5297 5285 5277
5339 5345 5349 5353 5357 5361 5357 5362 5364 5366 5367 5364 5374 5365 5363 5364 5369 5371 5374 5373 5376 5376 5377 5385 5372 5372 5378 5378 5380 5375 5371 5370 5366 5366 5363 5356 5350 5345 5341 5339 5334 5329 5324 5321 5314 5309 5305 5296 5293 5295 5289 5284 5278 5274
5338 5341 5343 5347 5352 5351 5350 5347 5349 5356 5348 5347 5345 5348 5350 5350 5347 5348 5353 5355 5359 5362 5362 5366 5364 5369 5364 5355 5362 5360 5356 5355 5358 5355 5348 5341 5335 5330 5325 5322 5318 5315 5314 5311 5307 5305 5301 5293 5287 5283 5278 5274 5270 5268
5334 5337 5339 5342 5344 5345 5338 5337 5339 5349 5350 5343 5338 5343 5340 5340 5336 5338 5342 5346 5351 5354 5356 5358 5359 5353 5353 5355 5351 5350 5346 5340 5336 5334 5335 5331 5321 5315 5313 5311 5312 5311 5307 5303 5299 5289 5287 5286 5281 5277 5271 5267 5262 5262
5326 5328 5333 5336 5331 5332 5330 5329 5332 5333 5333 5338 5327 5337 5329 5329 5331 5332 5335 5334 5339 5346 5348 5347 5343 5345 5340 5335 5331 5329 5326 5324 5325 5322 5320 5319 5315 5310 5307 5303 5301 5298 5293 5291 5287 5285 5275 5273 5271 5266 5260 5256 5255 5254
5322 5327 5325 5323 5320 5317 5318 5314 5327 5321 5329 5325 5326 5325 5326 5324 5319 5318 5319 5323 5329 5334 5337 5340 5340 5335 5330 5322 5322 5317 5316 5314 5311 5307 5302 5302 5303 5301 5299 5294 5289 5286 5282 5280 5278 5275 5270 5266 5261 5256 5252 5250 5249 5248
5322 5324 5318 5317 5314 5312 5304 5306 5319 5316 5324 5317 5314 5319 5317 5314 5304 5300 5308 5315 5318 5323 5327 5327 5325 5320 5318 5316 5310 5308 5305 5301 5302 5302 5297 5293 5291 5288 5285 5284 5277 5272 5272 5274 5269 5265 5261 5256 5252 5248 5246 5244 5243 5242
5320 5313 5310 5308 5308 5301 5304 5303 5305 5306 5306 5305 5311 5309 5304 5300 5287 5291 5299 5302 5312 5312 5311 5312 5312 5312 5309 5299 5300 5301 5299 5295 5294 5291 5285 5279 5281 5283 5279 5276 5271 5266 5262 5263 5260 5257 5253 5249 5245 5243 5241 5240 5238 5239
5317 5297 5302 5295 5294 5295 5296 5299 5299 5305 5304 5294 5289 5291 5286 5274 5288 5287 5292 5307 5306 5305 5305 5302 5298 5297 5298 5298 5295 5294 5286 5284 5285 5285 5281 5271 5267 5267 5267 5265 5263 5258 5254 5251 5251 5249 5247 5243 5240 5238 5236 5235 5235 5235
5296 5291 5298 5292 5287 5297 5291 5289 5287 5290 5289 5281 5279 5271 5267 5281 5287 5299 5301 5302 5296 5296 5294 5293 5291 5292 5290 5286 5285 5284 5280 5269 5266 5267 5269 5263 5256 5250 5249 5249 5250 5251 5245 5243 5241 5239 5238 5236 5234 5232 5231 5229 5227 5226
5289 5288 5289 5282 5286 5280 5276 5268 5269 5273 5271 5273 5281 5264 5273 5280 5289 5296 5291 5279 5281 5271 5269 5269 5268 5269 5269 5268 5264 5260 5254 5251 5248 5250 5249 5244 5241 5237 5234 5234 5236 5235 5232 5231 5230 5229 5228 5227 5226 5225 5224 5222 5219 5216
5284 5285 5283 5279 5278 5275 5275 5273 5274 5273 5281 5276 5271 5267 5276 5283 5291 5272 5261 5251 5247 5249 5251 5249 5246 5241 5240 5239 5237 5237 5236 5233 5233 5233 5233 5232 5229 5224 5219 5218 5217 5216 5218 5219 5219 5219 5218 5218 5217 5214 5212 5211 5209 5205
5282 5274 5275 5267 5264 5265 5272 5280 5282 5282 5280 5273 5277 5281 5276 5262 5237 5235 5232 5229 5231 5231 5230 5227 5225 5220 5221 5217 5216 5213 5208 5205 5205 5211 5217 5222 5224 5208 5201 5200 5202 5203 5204 5205 5206 5205 5205 5204 5202 5201 5199 5197 5193 5190
5272 5268 5271 5261 5260 5271 5281 5275 5276 5267 5265 5266 5265 5262 5251 5226 5213 5212 5212 5211 5209 5205 5202 5201 5200 5200 5199 5198 5196 5193 5184 5175 5170 5174 5184 5187 5184 5182 5183 5184 5186 5187 5188 5190 5192 5194 5194 5191 5188 5187 5184 5180 5174 5170
5261 5262 5264 5264 5266 5270 5260 5246 5247 5246 5249 5255 5249 5254 5253 5211 5199 5192 5189 5188 5186 5185 5184 5183 5183 5183 5182 5180 5175 5174 5170 5160 5154 5154 5156 5160 5163 5164 5165 5166 5168 5169 5172 5174 5176 5178 5176 5175 5172 5168 5163 5157 5152 5149
5255 5259 5259 5256 5262 5247 5239 5241 5242 5246 5248 5242 5249 5223 5214 5210 5193 5178 5167 5167 5168 5166 5161 5160 5161 5162 5158 5155 5152 5149 5144 5143 5141 5140 5141 5143 5145 5146 5147 5149 5151 5153 5156 5158 5158 5157 5156 5155 5152 5148 5144 5138 5132 5128
5237 5234 5233 5235 5238 5243 5230 5227 5233 5232 5230 5228 5217 5206 5193 5188 5170 5157 5151 5148 5147 5144 5142 5141 5141 5140 5140 5136 5133 5131 5130 5129 5127 5125 5124 5125 5126 5128 5130 5132 5134 5136 5138 5139 5138 5137 5136 5133 5129 5125 5121 5116 5111 5106